Location: ???????
(55.4362°N, 38.1183°E)
Time: 01:01:54
(UTC+00:00)

METEOR M2 - Pass Details

Date: 04 December 2021
Orbit: 818 x 827 km, 98.4° (Epoch: 28 January)

Event Time Altitude Azimuth Distance (km) Brightness Sun altitude
Rises 14:19:58 0° 126° (SE) 3,361 ? -10.5°
Reaches altitude 10° 14:22:33 10° 116° (ESE) 2,431 ? -10.8°
Maximum altitude 14:27:09 30° 57° (ENE) 1,453 ? -11.4°
Drops below altitude 10° 14:31:46 10° 358° (N) 2,439 ? -12.0°
Sets 14:34:22 0° 348° (NNW) 3,375 ? -12.3°
